Overview Statistics Trail Chart Weather Telemetry Raw packets
 

This is the latest recevied weather packets stored in our database for station/object WW5JC. If no packets are shown the sender has not sent any weather packets the latest 10 day(s).

<< 60 61 62 63 64 65 66 >>
Time Temp. Humidity Pressure Rain* Wind** Luminosity Snow
1788212839 37.78° C 38% 1016.4 hPa 0 mm - 350 W/m² -
1788212537 37.78° C 37% 1016.5 hPa 0 mm - 369 W/m² -
1788212232 37.22° C 38% 1016.4 hPa 0 mm - 406 W/m² -
1788211928 37.78° C 37% 1016.6 hPa 0 mm - 438 W/m² -
1788211624 36.67° C 38% 1016.6 hPa 0 mm - 442 W/m² -
1788211321 36.67° C 40% 1016.5 hPa 0 mm - 181 W/m² -
1788211018 37.22° C 38% 1016.7 hPa 0 mm - 442 W/m² -
1788210714 37.22° C 39% 1016.7 hPa 0 mm - 466 W/m² -
1788210414 36.67° C 40% 1016.6 hPa 0 mm - 198 W/m² -
1788210110 36.67° C 40% 1016.6 hPa 0 mm - 492 W/m² -
1788209808 36.11° C 42% 1016.8 hPa 0 mm - 177 W/m² -
1788209505 36.11° C 41% 1016.7 hPa 0 mm - 161 W/m² -
1788209205 36.11° C 42% 1016.9 hPa 0 mm - 161 W/m² -
1788208903 36.11° C 41% 1017 hPa 0 mm - 125 W/m² -
1788208598 36.67° C 40% 1017 hPa 0 mm - 120 W/m² -
1788208298 37.22° C 39% 1017 hPa 0 mm - 464 W/m² -
1788207996 37.22° C 39% 1017.2 hPa 0 mm - 574 W/m² -
1788207691 37.78° C 38% 1017.1 hPa 0 mm - 575 W/m² -
1788207390 37.22° C 39% 1017.3 hPa 0 mm - 573 W/m² -
1788207085 37.78° C 39% 1017.3 hPa 0 mm - 565 W/m² -
1788206782 36.67° C 39% 1017.5 hPa 0 mm - 592 W/m² -
1788206475 37.78° C 39% 1017.5 hPa 0 mm - 597 W/m² -
1788206166 37.22° C 38% 1017.5 hPa 0 mm - 590 W/m² -
1788205861 37.22° C 38% 1017.6 hPa 0 mm - 607 W/m² -
1788205556 36.67° C 39% 1017.7 hPa 0 mm - 626 W/m² -

* Rain latest hour (hover to see other rain measurements)
** Current wind speed in m/s (hover to see current wind gust speed)